| time (UTC) | temp F | wind direction | speed MPH | gust MPH | rain 1hr in | rain 24hr in | rain mn in | humidity % | barometer mb |
| 20260904211603 | 85 | 191 | 4.0 | 5.0 | 0.00 | 0.00 | 0.00 | 71 | 1018.9 |
| 20260904210055 | 85 | 191 | 2.0 | 8.0 | 0.00 | 0.00 | 0.00 | 72 | 1018.9 |
| 20260904204602 | 84 | 191 | 1.0 | 4.0 | 0.00 | 0.00 | 0.00 | 72 | 1019.3 |
| 20260904203100 | 85 | 0 | 0.0 | 4.0 | 0.00 | 0.00 | 0.00 | 72 | 1019.9 |
| 20260904201621 | 85 | 191 | 2.0 | 4.0 | 0.00 | 0.00 | 0.00 | 72 | 1019.9 |
| 20260904200100 | 85 | 0 | 0.0 | 2.0 | 0.00 | 0.00 | 0.00 | 72 | 1019.4 |
| 20260904194555 | 86 | 0 | 0.0 | 4.0 | 0.00 | 0.00 | 0.00 | 72 | 1019.3 |
| 20260904193100 | 85 | 191 | 1.0 | 2.0 | 0.00 | 0.00 | 0.00 | 72 | 1019.1 |
| 20260904191555 | 85 | 191 | 1.0 | 1.0 | 0.00 | 0.00 | 0.00 | 72 | 1019.1 |
| 20260904190056 | 84 | 191 | 0.0 | 2.0 | 0.00 | 0.00 | 0.00 | 72 | 1018.9 |
| 20260904184556 | 84 | 191 | 1.0 | 2.0 | 0.00 | 0.00 | 0.00 | 72 | 1018.8 |
| 20260904183113 | 85 | 0 | 0.0 | 2.0 | 0.00 | 0.00 | 0.00 | 72 | 1018.6 |
| 20260904181554 | 88 | 0 | 0.0 | 1.0 | 0.00 | 0.00 | 0.00 | 72 | 1018.9 |
| 20260904174557 | 89 | 191 | 2.0 | 7.0 | 0.00 | 0.00 | 0.00 | 73 | 1018.5 |
| 20260904173056 | 88 | 192 | 4.0 | 7.0 | 0.00 | 0.00 | 0.00 | 73 | 1018.0 |
| 20260904171611 | 89 | 192 | 2.0 | 4.0 | 0.00 | 0.00 | 0.00 | 73 | 1019.4 |
| 20260904170100 | 89 | 192 | 3.0 | 4.0 | 0.00 | 0.00 | 0.00 | 73 | 1019.7 |
| 20260904164610 | 89 | 192 | 1.0 | 2.0 | 0.00 | 0.00 | 0.00 | 73 | 1019.8 |
| 20260904163053 | 88 | 192 | 3.0 | 8.0 | 0.00 | 0.00 | 0.00 | 72 | 1019.7 |
| 20260904161552 | 86 | 192 | 2.0 | 3.0 | 0.00 | 0.00 | 0.00 | 72 | 1019.8 |
| 20260904154558 | 83 | 192 | 3.0 | 6.0 | 0.00 | 0.00 | 0.00 | 72 | 1020.7 |
| 20260904153109 | 82 | 192 | 4.0 | 13.0 | 0.00 | 0.00 | 0.00 | 71 | 1020.8 |
| 20260904151553 | 83 | 192 | 6.0 | 10.0 | 0.00 | 0.00 | 0.00 | 71 | 1021.0 |
| 20260904150100 | 84 | 193 | 4.0 | 8.0 | 0.00 | 0.00 | 0.00 | 72 | 1021.1 |
| 20260904144559 | 82 | 193 | 0.0 | 15.0 | 0.00 | 0.00 | 0.00 | 71 | 1020.9 |
| 20260904143055 | 86 | 158 | 8.0 | 14.0 | 0.00 | 0.00 | 0.00 | 72 | 1021.0 |
| 20260904141555 | 85 | 118 | 5.0 | 9.0 | 0.00 | 0.00 | 0.00 | 71 | 1019.7 |
| 20260904140104 | 84 | 118 | 5.0 | 11.0 | 0.00 | 0.00 | 0.00 | 71 | 1020.3 |
| 20260904134601 | 83 | 122 | 9.0 | 12.0 | 0.00 | 0.00 | 0.00 | 71 | 1020.4 |
| 20260904133059 | 83 | 122 | 0.0 | 4.0 | 0.00 | 0.00 | 0.00 | 71 | 1021.8 |
| 20260904131607 | 83 | 122 | 1.0 | 3.0 | 0.00 | 0.00 | 0.00 | 71 | 1022.2 |
| 20260904130050 | 82 | 122 | 0.0 | 4.0 | 0.00 | 0.00 | 0.00 | 71 | 1022.4 |
| 20260904124557 | 82 | 122 | 2.0 | 6.0 | 0.00 | 0.00 | 0.00 | 70 | 1022.8 |
| 20260904123058 | 82 | 122 | 0.0 | 3.0 | 0.00 | 0.00 | 0.00 | 70 | 1022.8 |
| 20260904121556 | 81 | 0 | 0.0 | 4.0 | 0.00 | 0.00 | 0.00 | 70 | 1022.6 |
| 20260904114605 | 79 | 128 | 1.0 | 5.0 | 0.00 | 0.00 | 0.00 | 70 | 1023.2 |
| 20260904113057 | 78 | 0 | 2.0 | 8.0 | 0.00 | 0.00 | 0.00 | 69 | 1023.1 |
| 20260904111606 | 78 | 127 | 4.0 | 9.0 | 0.00 | 0.00 | 0.00 | 69 | 1023.4 |
| 20260904104601 | 78 | 128 | 3.0 | 8.0 | 0.00 | 0.00 | 0.00 | 69 | 1023.1 |
| 20260904103058 | 77 | 128 | 3.0 | 9.0 | 0.00 | 0.00 | 0.00 | 69 | 1023.2 |
| 20260904101558 | 77 | 128 | 2.0 | 9.0 | 0.00 | 0.00 | 0.00 | 69 | 1023.2 |
| 20260904100105 | 76 | 128 | 2.0 | 8.0 | 0.00 | 0.00 | 0.00 | 69 | 1022.9 |
| 20260904094609 | 76 | 0 | 2.0 | 8.0 | 0.00 | 0.00 | 0.00 | 68 | 1023.2 |
| 20260904093108 | 76 | 129 | 4.0 | 9.0 | 0.00 | 0.00 | 0.00 | 68 | 1023.4 |
| 20260904091606 | 75 | 133 | 0.0 | 9.0 | 0.00 | 0.00 | 0.00 | 68 | 1023.3 |
| 20260904090101 | 75 | 134 | 3.0 | 5.0 | 0.00 | 0.00 | 0.00 | 68 | 1023.1 |
| 20260904084559 | 75 | 134 | 0.0 | 4.0 | 0.00 | 0.00 | 0.00 | 68 | 1023.1 |
| 20260904083052 | 75 | 0 | 1.0 | 3.0 | 0.00 | 0.00 | 0.00 | 68 | 1022.9 |
| 20260904081604 | 74 | 134 | 3.0 | 6.0 | 0.00 | 0.00 | 0.00 | 68 | 1022.1 |
| 20260904080056 | 74 | 134 | 1.0 | 5.0 | 0.00 | 0.00 | 0.00 | 68 | 1022.1 |
| 20260904074600 | 74 | 135 | 1.0 | 7.0 | 0.00 | 0.00 | 0.00 | 68 | 1022.6 |
| 20260904073115 | 74 | 135 | 1.0 | 2.0 | 0.00 | 0.00 | 0.00 | 67 | 1022.8 |
| 20260904071559 | 74 | 135 | 2.0 | 5.0 | 0.00 | 0.00 | 0.00 | 67 | 1022.8 |
| 20260904070106 | 74 | 138 | 2.0 | 9.0 | 0.00 | 0.00 | 0.00 | 67 | 1022.8 |
| 20260904064605 | 75 | 0 | 2.0 | 9.0 | 0.00 | 0.00 | 0.00 | 67 | 1022.7 |
| 20260904063107 | 76 | 138 | 4.0 | 8.0 | 0.00 | 0.00 | 0.00 | 68 | 1022.5 |
| 20260904061557 | 76 | 0 | 0.0 | 2.0 | 0.00 | 0.00 | 0.00 | 67 | 1021.8 |
| 20260904060103 | 76 | 0 | 1.0 | 3.0 | 0.00 | 0.00 | 0.00 | 67 | 1021.5 |
| 20260904054633 | 76 | 0 | 1.0 | 4.0 | 0.00 | 0.00 | 0.00 | 67 | 1021.4 |
| 20260904053104 | 75 | 137 | 2.0 | 6.0 | 0.00 | 0.00 | 0.00 | 67 | 1020.9 |
| 20260904051600 | 74 | 137 | 3.0 | 7.0 | 0.00 | 0.00 | 0.00 | 67 | 1020.9 |
| 20260904050054 | 74 | 149 | 3.0 | 8.0 | 0.00 | 0.00 | 0.00 | 67 | 1020.9 |
| 20260904044559 | 73 | 159 | 2.0 | 4.0 | 0.00 | 0.00 | 0.00 | 67 | 1021.0 |
| 20260904043102 | 73 | 160 | 4.0 | 7.0 | 0.00 | 0.00 | 0.00 | 66 | 1021.0 |
| 20260904041607 | 74 | 165 | 5.0 | 9.0 | 0.00 | 0.00 | 0.00 | 67 | 1021.4 |
| 20260904034556 | 74 | 0 | 0.0 | 0.0 | 0.00 | 0.00 | 0.00 | 67 | 1021.4 |
| 20260904033102 | 75 | 0 | 0.0 | 0.0 | 0.00 | 0.00 | 0.00 | 67 | 1021.3 |
| 20260904031605 | 75 | 0 | 0.0 | 1.0 | 0.00 | 0.00 | 0.00 | 67 | 1021.0 |
| 20260904030057 | 76 | 177 | 1.0 | 4.0 | 0.00 | 0.00 | 0.00 | 67 | 1021.2 |
| 20260904024600 | 76 | 177 | 0.0 | 0.0 | 0.00 | 0.00 | 0.00 | 67 | 1020.8 |
| 20260904023107 | 76 | 0 | 0.0 | 5.0 | 0.00 | 0.00 | 0.00 | 67 | 1021.0 |
| 20260904021600 | 77 | 183 | 1.0 | 3.0 | 0.00 | 0.00 | 0.00 | 67 | 1021.0 |
| 20260904020101 | 78 | 183 | 0.0 | 5.0 | 0.00 | 0.00 | 0.00 | 67 | 1021.3 |
| 20260904014616 | 78 | 183 | 3.0 | 7.0 | 0.00 | 0.00 | 0.00 | 67 | 1021.5 |
| 20260904013118 | 78 | 0 | 1.0 | 9.0 | 0.00 | 0.00 | 0.00 | 67 | 1021.5 |
| 20260904011558 | 78 | 183 | 4.0 | 9.0 | 0.00 | 0.00 | 0.00 | 67 | 1021.8 |
| 20260904010112 | 78 | 183 | 1.0 | 4.0 | 0.00 | 0.00 | 0.00 | 67 | 1021.9 |
| 20260904004616 | 78 | 183 | 1.0 | 4.0 | 0.00 | 0.00 | 0.00 | 67 | 1022.2 |
| 20260904003123 | 75 | 0 | 0.0 | 0.0 | 0.00 | 0.00 | 0.00 | 66 | 1021.7 |
| 20260904001555 | 76 | 0 | 0.0 | 0.0 | 0.00 | 0.00 | 0.00 | 66 | 1021.6 |
| 20260904000054 | 76 | 0 | 0.0 | 0.0 | 0.00 | 0.00 | 0.00 | 66 | 1021.5 |
| 20260903234601 | 76 | 0 | 0.0 | 0.0 | 0.00 | 0.00 | 0.00 | 66 | 1021.6 |
| 20260903233103 | 76 | 0 | 0.0 | 0.0 | 0.00 | 0.00 | 0.00 | 66 | 1021.3 |
| 20260903231559 | 76 | 0 | 0.0 | 0.0 | 0.00 | 0.00 | 0.00 | 66 | 1021.4 |
| 20260903224554 | 77 | 0 | 0.0 | 0.0 | 0.00 | 0.00 | 0.00 | 66 | 1021.2 |
| 20260903223109 | 77 | 0 | 0.0 | 0.0 | 0.00 | 0.00 | 0.00 | 66 | 1021.1 |
| 20260903221556 | 77 | 0 | 0.0 | 0.0 | 0.00 | 0.00 | 0.00 | 66 | 1020.8 |
| 20260903220057 | 78 | 0 | 0.0 | 0.0 | 0.00 | 0.00 | 0.00 | 66 | 1020.9 |
| 20260903214553 | 79 | 0 | 0.0 | 0.0 | 0.00 | 0.00 | 0.00 | 66 | 1020.8 |
| 20260903213058 | 80 | 0 | 0.0 | 0.0 | 0.00 | 0.00 | 0.00 | 66 | 1020.8 |